Theta_e
309 310 311 311 310 309 309 312 313 313 313 312 310 309 309 309 309 309 309 309 309 309 309 309 310 311 311 311 312 315 316 316 319 319 317 314 314 314 312 312 312 312 313 314 315 317 317 317 318 318 319 319 319 319 319 319 318 319 324 326 322 323 326 331 331 327 328 332 333 332 332 332 334 333 331 332 332 333 332 332 332 333 333 335 337 336 336 337
309 310 311 311 311 309 310 312 313 313 313 313 311 310 309 309 309 309 309 309 309 310 311 312 313 313 314 314 315 316 316 318 321 318 314 314 314 313 312 312 313 313 314 315 317 318 317 317 318 318 318 318 318 318 318 319 318 319 324 325 324 325 327 331 330 326 329 331 331 332 331 331 333 333 332 332 332 332 332 331 331 333 335 336 338 337 336 337
309 310 311 312 311 310 311 313 314 313 314 314 312 311 310 310 309 309 311 311 312 313 313 313 313 314 314 316 317 316 318 321 320 315 314 314 314 313 313 313 313 314 314 315 316 317 318 317 319 318 318 318 318 318 318 318 318 318 321 324 326 326 327 331 329 328 330 330 331 331 330 331 331 331 331 332 332 331 332 331 330 333 336 335 337 338 336 336
309 311 312 312 312 311 311 313 314 314 314 314 314 313 311 310 310 311 313 314 314 314 314 314 313 314 316 317 317 317 319 320 315 314 315 313 314 313 313 313 313 313 314 315 315 316 317 318 319 319 318 318 317 318 318 318 318 318 320 324 327 327 328 330 330 329 330 330 331 331 330 331 330 330 331 330 330 331 333 333 332 333 335 334 335 337 335 336
309 311 312 312 313 312 312 313 314 314 314 315 314 314 312 311 311 313 315 315 314 314 314 314 314 316 317 318 316 317 320 316 313 316 315 314 314 313 313 313 313 313 314 315 315 317 318 319 319 318 318 318 317 318 318 317 318 320 321 324 327 327 329 330 330 330 330 330 330 330 330 330 330 330 330 330 331 332 333 332 332 332 334 335 335 335 335 335
309 311 312 313 313 313 313 313 314 314 314 315 314 314 313 312 313 314 315 315 315 314 314 315 316 317 318 317 315 319 320 314 314 316 315 315 314 314 314 314 314 313 314 315 317 318 318 319 319 318 318 317 318 318 318 317 318 322 324 326 328 328 330 330 330 331 329 328 329 330 330 330 331 332 331 332 333 333 332 332 332 333 335 336 335 335 335 334
309 311 313 313 314 314 314 314 314 314 315 315 315 314 313 313 314 314 315 315 315 315 315 316 317 317 318 317 317 321 319 313 316 315 315 315 314 314 314 314 315 314 315 317 318 318 318 318 318 318 318 317 318 317 317 318 320 323 326 328 329 329 330 331 331 330 329 329 330 329 329 329 331 332 332 333 333 332 333 334 335 336 336 336 335 334 334 334
308 311 313 314 314 315 315 315 315 315 315 315 315 314 313 313 314 314 315 315 315 315 316 317 317 318 318 318 320 320 315 315 316 315 315 315 315 314 314 315 315 315 317 318 318 318 317 317 317 317 317 317 317 318 320 322 324 325 326 329 331 331 332 331 330 330 329 329 329 328 329 331 331 332 332 332 333 333 334 335 336 336 335 334 333 333 334 334
309 311 313 314 315 316 317 317 317 317 317 316 314 314 314 314 314 314 315 315 315 315 316 317 318 317 316 317 320 316 314 316 315 315 316 315 315 314 315 317 316 316 318 317 317 318 317 317 317 317 317 317 317 318 320 322 325 327 328 329 331 331 331 330 330 330 329 329 328 329 331 331 331 332 333 333 333 333 334 334 334 334 333 332 332 332 333 333
309 311 313 314 316 318 318 319 319 319 318 316 314 314 314 314 314 315 315 315 316 316 317 318 317 317 317 319 318 316 315 316 315 316 315 315 315 314 316 317 316 318 317 316 317 317 317 317 317 317 317 316 317 318 321 323 327 330 329 330 331 331 331 330 330 330 329 329 329 329 330 331 330 330 333 332 332 332 333 333 333 333 332 331 330 331 332 332
309 311 313 315 317 319 320 320 320 320 319 317 315 314 314 314 315 315 315 317 318 318 317 318 317 317 319 319 317 316 315 316 316 316 315 315 315 316 317 316 317 318 317 317 317 316 316 316 317 317 317 318 321 325 327 328 329 331 330 331 332 331 331 330 330 330 329 330 329 328 330 330 328 330 333 332 332 332 333 333 332 332 331 330 328 329 331 331
309 311 313 315 318 320 321 320 320 321 320 317 315 314 315 315 315 315 317 319 320 319 318 318 317 317 319 318 316 316 315 316 317 316 315 315 315 316 316 315 317 317 317 317 317 315 315 316 317 317 317 319 323 326 329 329 329 329 327 330 331 331 331 330 330 329 329 330 329 328 326 326 328 331 334 332 331 331 331 332 332 331 330 328 328 328 329 330
309 312 314 316 319 321 321 321 321 321 320 317 316 316 315 316 315 316 320 322 321 319 318 319 317 317 321 318 316 316 316 316 317 316 316 316 316 316 315 315 316 316 316 316 316 315 314 316 316 317 318 319 322 324 328 329 327 327 325 327 328 327 328 330 330 328 329 329 329 327 320 320 329 333 333 332 331 331 330 331 331 331 330 328 328 327 327 329
309 312 314 317 320 321 322 321 321 321 318 316 316 316 316 317 317 319 322 321 320 320 319 319 316 319 322 317 316 317 316 317 317 316 316 316 317 317 316 316 315 315 315 315 315 314 314 316 317 319 320 322 324 325 327 328 326 326 324 326 325 321 323 330 330 327 329 328 329 327 317 319 332 334 333 332 331 332 331 330 330 329 329 328 328 327 326 328
309 312 315 318 321 322 322 322 321 321 320 319 318 319 320 321 320 321 322 320 319 319 319 319 318 321 321 316 317 317 316 318 317 317 316 317 318 318 318 317 316 315 315 316 316 315 316 318 318 319 322 324 324 324 324 324 325 324 321 320 321 320 322 329 329 327 328 328 329 326 317 321 333 334 333 332 331 332 331 331 330 329 328 327 327 326 325 326
309 312 315 319 321 322 323 322 322 322 322 321 321 321 321 321 321 321 321 320 319 318 320 322 320 321 319 316 318 317 318 319 317 317 316 316 318 318 318 318 317 317 317 317 317 318 319 319 319 320 322 323 322 321 321 320 320 321 319 316 317 319 321 325 327 328 328 328 328 326 320 323 331 333 332 332 332 332 332 332 331 330 329 327 327 326 324 324
309 312 315 319 321 322 323 323 322 321 321 321 321 321 320 321 321 321 321 320 318 318 320 322 321 320 318 317 318 317 318 318 317 317 316 316 317 318 318 318 319 319 320 319 319 319 318 319 319 319 321 320 320 320 317 315 315 316 318 316 317 319 319 320 324 327 328 328 327 326 324 324 329 333 333 331 332 332 332 332 332 331 329 328 326 326 325 323
308 311 315 318 321 322 322 323 323 322 321 321 321 321 321 320 321 322 322 320 320 320 320 321 321 320 317 318 318 317 318 318 317 317 316 317 317 318 318 318 319 320 319 319 319 319 318 319 318 318 319 319 319 318 313 313 314 313 314 315 316 318 319 320 323 325 326 327 326 326 324 324 328 332 333 332 331 331 332 332 332 331 330 329 327 326 325 324
307 311 314 317 320 321 321 322 322 322 322 322 321 320 321 321 321 324 324 321 321 322 320 320 321 319 317 318 319 318 319 317 317 318 318 318 318 319 319 319 319 318 318 318 318 319 318 319 318 317 317 317 318 317 315 315 317 315 315 315 314 315 317 321 324 325 326 326 325 325 324 324 326 330 334 333 331 331 332 332 331 331 330 329 328 327 326 324
306 310 313 316 319 321 321 321 321 322 322 322 322 323 324 324 322 321 322 320 320 321 319 319 320 319 318 318 319 319 318 318 318 319 318 317 319 320 318 319 318 318 318 318 318 319 319 318 317 316 317 318 318 318 318 318 318 318 317 316 315 315 316 321 325 325 326 325 324 325 325 324 324 328 333 333 332 332 332 333 332 330 330 330 329 328 326 325
305 309 313 315 318 320 320 320 320 322 322 323 325 327 327 327 325 323 323 322 321 322 320 319 319 319 318 319 319 318 318 319 319 319 319 318 319 319 318 319 318 317 319 318 318 319 319 317 317 317 317 317 317 318 319 319 319 318 316 315 315 315 317 321 324 324 325 324 324 325 325 325 325 326 330 331 332 332 331 333 333 331 330 329 329 328 326 326
305 308 312 315 317 320 320 319 319 320 323 326 328 328 327 327 327 326 326 323 320 322 321 319 319 319 318 318 318 317 317 318 319 319 319 319 319 318 318 318 318 318 318 318 318 318 317 317 317 317 316 316 317 318 319 319 318 318 316 315 314 316 318 320 322 322 324 324 324 325 324 325 326 325 329 330 330 331 331 331 332 332 330 329 329 328 326 325
304 306 311 315 316 318 321 319 319 320 323 327 327 326 326 326 326 325 327 325 319 320 319 318 319 318 318 318 318 317 318 319 318 318 319 319 319 318 319 318 318 318 318 318 319 316 315 317 317 316 316 317 318 318 318 318 318 317 316 314 313 316 316 316 319 321 323 324 324 325 324 324 326 326 329 330 328 330 331 331 331 331 330 330 328 328 327 326
304 305 310 314 315 318 320 319 319 320 322 324 325 325 323 325 327 326 327 325 320 319 319 319 318 318 318 317 318 318 318 318 318 318 319 319 319 319 319 319 318 318 318 318 318 317 315 316 317 316 316 318 318 318 318 317 317 317 317 315 314 316 316 316 319 321 321 323 325 324 322 322 325 327 327 328 329 331 331 330 330 330 330 330 329 328 327 327
303 304 308 313 316 316 318 320 319 319 322 324 324 323 323 325 326 326 328 324 319 319 320 320 319 318 317 317 318 318 318 318 318 319 320 319 318 319 319 319 319 319 318 319 318 318 317 316 316 317 318 318 318 318 317 317 315 315 316 316 316 316 317 317 319 319 317 319 323 322 318 319 323 324 325 328 331 331 330 330 330 330 329 329 329 328 328 327
303 304 306 311 316 315 318 323 319 318 322 324 323 324 325 325 325 326 330 322 317 319 320 321 320 319 318 318 319 318 319 318 318 319 319 318 318 319 319 319 320 319 319 320 319 318 317 317 317 318 318 318 318 318 317 317 315 314 315 316 317 317 317 317 317 316 313 316 322 322 317 316 319 322 324 328 332 332 331 331 330 329 328 328 328 328 327 327
303 304 305 310 314 315 319 322 318 319 323 323 323 325 326 326 325 328 327 318 316 318 320 321 320 319 319 318 319 318 318 318 318 320 319 318 318 319 319 319 319 319 320 320 318 318 318 318 317 318 318 318 318 317 317 317 314 313 315 316 317 317 316 317 316 314 313 316 320 321 318 315 316 321 327 328 330 332 332 332 330 329 328 328 328 327 327 327
303 303 306 309 312 314 316 318 318 321 323 323 325 326 327 325 325 329 324 317 320 320 319 321 319 319 319 319 320 319 318 319 319 319 318 318 319 319 320 319 319 319 321 320 316 316 318 318 318 318 319 318 317 316 316 317 316 315 316 316 317 317 317 317 315 314 315 315 314 317 318 315 313 320 327 328 326 328 330 331 331 330 329 328 328 327 327 327
303 304 306 308 311 314 313 315 320 323 323 324 326 327 327 325 326 327 320 317 323 320 319 322 320 319 320 320 320 319 319 319 319 319 319 319 319 319 319 319 319 319 319 319 317 317 317 317 317 318 318 317 317 317 316 316 317 316 316 316 317 317 317 317 315 314 315 314 313 316 318 314 313 317 322 324 323 324 327 328 329 330 329 329 329 328 327 326
303 305 307 309 313 315 314 317 321 322 323 325 326 326 327 327 326 322 317 319 323 320 320 322 321 320 320 320 320 319 319 319 319 319 318 319 319 318 318 317 319 319 319 319 318 318 317 317 318 317 317 317 316 316 315 316 316 315 316 317 317 317 318 317 316 314 313 314 315 317 318 317 315 315 318 323 325 326 328 327 327 328 328 328 327 327 327 327
304 306 308 310 314 315 317 321 322 322 324 325 326 325 326 328 323 317 317 321 321 320 321 321 321 320 320 321 320 319 319 318 319 319 318 319 319 319 319 318 319 319 318 319 318 318 318 318 318 317 316 317 317 317 316 316 316 316 317 316 314 315 316 315 315 315 313 314 316 316 317 318 315 316 320 324 326 326 327 329 328 327 326 326 326 325 326 326
305 308 309 310 312 314 318 322 322 323 325 325 326 328 327 324 319 316 318 319 319 323 323 321 322 320 319 321 319 319 320 319 319 319 319 319 318 319 319 319 319 317 315 316 317 317 318 318 318 317 317 318 318 318 317 317 317 317 317 315 313 312 313 312 312 312 312 313 315 315 316 316 315 318 321 324 325 325 326 327 327 326 325 324 324 324 325 326
307 311 311 312 314 316 319 321 323 324 325 325 327 330 325 318 316 318 319 318 320 323 321 320 321 320 320 320 320 320 319 319 319 318 319 319 319 319 319 319 319 318 316 316 316 315 316 318 317 317 318 318 319 317 316 316 317 317 315 313 313 312 313 313 312 311 312 313 314 315 315 314 315 320 323 324 325 324 324 324 324 325 324 324 324 322 323 324
310 314 315 316 318 319 320 321 323 324 325 326 329 328 322 315 317 321 320 320 321 321 320 320 320 319 321 321 320 320 320 319 319 319 320 320 320 319 319 319 318 319 319 317 316 315 314 316 317 318 318 318 318 317 316 317 317 317 316 315 315 314 314 315 313 312 313 313 313 315 314 313 315 320 322 323 324 323 323 323 323 324 324 324 323 321 321 321
312 317 317 319 319 319 320 321 323 324 326 330 329 324 318 314 317 320 320 321 321 321 321 320 320 320 320 321 322 321 319 319 319 320 320 319 319 319 319 319 318 319 318 316 316 316 313 315 317 317 318 318 318 318 318 319 318 318 318 317 316 315 315 314 315 316 315 314 313 313 313 314 316 320 321 322 322 321 322 322 323 323 322 323 322 320 320 320
316 320 319 321 322 320 320 320 322 324 326 330 324 318 316 318 319 320 320 321 322 323 322 319 320 320 317 319 323 323 320 319 319 320 320 319 319 319 319 319 318 318 318 316 316 316 314 315 318 318 318 318 318 318 318 318 318 318 318 317 316 316 316 315 316 318 317 315 314 312 313 314 317 320 322 322 322 321 321 321 321 321 321 322 321 320 319 319
317 324 324 326 326 322 321 321 323 325 327 327 321 317 319 320 319 319 319 320 321 323 322 319 319 320 318 318 321 322 320 319 319 319 318 319 319 318 319 319 318 318 319 318 318 318 317 317 318 318 319 318 317 318 319 318 318 318 317 316 316 316 317 316 315 316 315 314 313 313 313 313 314 318 321 322 323 322 321 321 321 321 321 321 320 321 321 320
317 326 327 327 325 322 323 323 323 327 327 324 322 321 322 319 318 318 318 319 320 322 322 320 320 321 319 317 319 321 320 319 319 318 318 319 318 317 319 319 318 318 319 319 318 319 319 317 317 318 318 318 318 318 319 319 319 318 317 317 317 317 316 316 316 316 316 315 314 313 314 313 314 317 319 320 322 323 322 321 321 321 321 320 320 321 321 322
321 327 327 326 324 323 324 322 324 328 325 321 321 321 321 318 318 317 317 319 320 321 322 321 321 322 321 319 320 323 321 319 318 318 317 319 319 317 318 320 320 319 318 318 318 319 319 317 316 317 318 318 319 319 318 318 319 319 319 319 320 319 316 316 316 316 316 316 315 315 314 314 316 318 318 319 321 321 321 321 321 320 320 320 320 320 321 322
327 326 326 325 323 323 322 322 326 326 322 322 322 321 320 319 318 316 316 318 320 320 322 322 322 322 322 322 322 323 322 320 319 318 318 319 319 318 318 320 321 319 316 317 318 319 320 318 315 316 317 317 319 320 319 320 320 318 319 319 319 319 318 317 317 316 317 317 317 318 316 315 317 319 319 320 321 320 320 320 320 319 319 319 320 322 322 323
328 324 327 325 322 323 323 325 328 325 323 324 323 321 319 317 318 317 315 317 319 319 320 322 323 323 322 322 322 323 322 320 319 319 319 319 319 318 318 320 322 320 317 319 320 319 319 318 315 315 316 317 319 320 320 322 323 320 319 319 319 319 318 318 318 317 318 319 318 320 319 317 318 319 319 320 320 319 319 319 319 319 319 319 320 322 323 323
324 321 326 324 322 323 325 326 327 325 324 323 321 321 319 317 318 318 317 318 319 320 320 322 323 324 324 323 323 323 322 320 320 319 319 319 319 319 318 319 320 319 319 319 319 319 320 320 315 314 317 319 320 320 319 321 323 322 321 320 320 321 320 318 318 318 319 319 318 319 318 318 320 320 320 320 320 319 319 320 320 319 319 319 320 321 323 324
322 322 326 323 321 323 326 324 323 324 324 321 320 319 316 318 319 318 318 319 319 320 320 321 323 323 324 324 324 323 322 321 320 320 320 319 319 319 318 319 319 318 319 320 319 320 321 320 316 314 318 320 320 321 321 322 323 322 322 322 321 322 322 321 320 320 319 318 318 318 317 317 320 321 321 320 320 320 320 321 320 319 319 319 319 321 322 324
322 325 327 324 320 321 323 322 321 322 322 321 320 318 316 318 319 319 319 318 318 320 321 321 322 322 323 324 324 324 324 322 320 320 320 320 319 319 318 318 318 318 320 320 320 321 320 318 316 315 316 319 320 321 321 321 322 321 321 323 323 323 324 323 322 321 319 318 320 320 317 316 320 321 321 320 320 321 321 320 319 319 319 319 320 321 322 323
321 325 325 324 322 320 321 322 322 322 322 322 321 320 318 318 317 318 319 318 318 320 321 321 321 322 323 324 324 324 324 323 322 321 320 320 320 319 318 318 318 319 321 321 320 319 318 319 318 314 313 315 318 319 319 320 320 320 322 324 325 324 324 323 321 319 318 320 321 321 318 317 320 321 321 321 321 321 320 319 318 319 320 320 321 321 322 322
322 322 322 323 322 321 320 322 323 322 322 322 321 321 321 320 318 317 318 319 319 319 321 321 320 322 324 324 324 324 323 324 324 322 320 321 321 319 320 321 319 320 324 322 320 319 319 320 321 318 316 316 318 320 321 321 321 321 323 324 325 325 325 323 321 319 320 321 320 319 320 320 320 321 321 322 321 320 320 319 318 319 319 320 321 321 322 322
320 321 323 323 320 319 320 321 321 322 323 322 321 321 322 321 321 319 319 321 320 319 322 321 320 322 324 324 325 324 323 322 322 322 321 322 322 320 320 322 322 325 327 323 320 321 320 319 321 323 321 320 321 322 323 323 323 323 323 324 324 325 325 323 321 321 323 321 319 320 324 323 322 321 321 321 321 321 320 320 319 319 320 320 320 320 320 320
319 322 326 325 321 319 319 320 321 322 322 323 323 324 323 322 322 322 321 321 320 320 321 321 321 320 321 324 323 323 324 323 322 323 322 321 323 322 321 322 322 325 328 323 319 322 320 318 321 324 322 321 322 323 323 324 324 324 324 325 325 325 325 323 322 323 324 322 320 322 325 325 323 321 321 321 321 321 320 320 320 320 320 320 319 319 319 319
321 323 325 323 323 323 323 324 324 322 321 324 324 324 324 322 323 325 324 322 322 322 321 321 321 319 319 323 323 322 324 322 320 323 324 322 323 324 322 323 322 322 324 321 321 323 321 319 323 324 322 322 323 323 324 324 324 325 324 325 326 326 326 323 321 324 325 323 323 324 325 325 323 321 321 321 321 321 320 320 320 320 320 320 319 319 319 319
323 325 326 324 323 325 326 325 324 322 323 325 324 323 324 324 324 325 326 324 324 323 321 320 321 320 320 322 322 323 324 322 320 323 323 323 323 323 322 323 322 321 322 322 324 325 322 321 324 323 320 322 324 324 325 325 324 324 323 324 327 327 324 321 320 321 322 322 323 324 324 324 322 320 321 321 321 321 321 321 321 321 320 320 320 320 319 319
322 323 324 326 324 324 324 324 323 322 322 323 322 323 324 323 323 325 326 325 325 325 322 321 321 322 323 323 322 324 324 323 322 322 321 322 322 321 321 321 321 321 322 323 324 324 322 320 323 322 317 318 323 323 323 323 323 324 325 328 330 327 322 320 321 320 320 322 323 322 322 321 321 321 321 320 321 321 320 320 320 320 320 320 320 320 320 320
320 321 322 325 325 323 322 322 322 321 321 323 325 325 323 323 324 325 325 323 325 325 324 323 324 323 324 325 325 325 325 323 323 323 320 320 320 320 319 319 318 320 323 324 323 323 322 320 320 320 316 316 321 321 321 321 321 321 322 325 329 327 322 322 322 322 322 322 321 320 320 320 321 321 320 320 320 320 320 320 320 320 320 319 320 320 320 320
Wind_Speed
22 22 21 20 18 17 14 11 11 12 12 11 10 9 8 7 6 6 6 6 6 6 7 8 9 9 10 10 9 6 6 8 5 5 4 6 5 4 6 7 8 8 7 6 6 6 7 6 6 6 5 4 2 2 1 2 2 3 3 5 6 10 7 5 8 8 9 11 11 9 7 8 10 9 7 9 11 12 13 12 12 12 14 16 17 18 18 17
22 22 21 19 18 16 13 11 11 11 11 11 9 8 7 7 8 7 7 7 7 7 8 9 10 11 11 9 7 5 8 7 5 9 9 6 6 6 7 7 7 7 6 5 5 5 5 6 7 7 5 3 2 1 1 1 2 2 2 5 6 9 6 3 10 10 9 11 11 9 7 8 9 9 6 7 11 12 12 13 12 13 15 17 16 16 16 15
22 22 21 19 18 16 13 11 11 11 11 10 9 8 7 8 8 7 7 7 8 9 10 11 12 13 12 8 4 4 6 6 6 12 8 4 6 6 7 7 6 6 3 2 3 3 2 4 7 7 4 3 2 1 2 1 1 1 1 5 9 11 8 4 10 9 9 11 11 10 8 9 9 6 5 8 11 10 10 10 11 13 14 15 14 15 15 14
22 22 21 19 18 16 13 11 10 11 11 10 9 8 8 8 7 7 8 9 10 10 11 12 13 13 11 7 2 3 5 3 8 9 4 3 4 5 5 5 5 4 2 2 2 3 4 4 7 6 4 3 3 1 2 1 1 0 0 7 11 12 10 7 10 10 10 10 9 10 9 9 8 6 7 9 9 8 8 7 10 14 14 14 14 14 14 13
22 22 21 19 18 16 13 11 10 10 10 10 9 8 7 7 6 7 8 10 11 11 12 13 13 12 9 6 2 3 6 1 7 4 2 1 2 3 3 3 3 3 3 3 3 4 5 6 7 6 4 3 4 3 4 3 1 1 5 11 11 10 11 9 9 10 10 9 9 9 8 9 8 7 7 5 4 7 8 7 10 14 13 13 13 13 13 12
22 22 20 19 18 16 14 12 10 10 9 9 8 7 6 6 6 7 9 10 11 12 12 13 12 10 6 5 2 4 4 3 3 2 1 1 1 1 2 2 3 3 4 4 5 5 6 7 8 6 3 3 4 3 6 3 2 3 8 10 9 8 11 9 9 10 9 9 9 7 8 8 9 9 8 8 9 8 9 9 12 14 14 14 14 13 12 11
22 21 20 19 18 16 14 12 11 10 9 8 7 7 6 6 7 8 9 10 11 12 13 12 11 8 4 2 0 2 5 8 3 2 1 1 1 2 2 2 2 3 5 5 5 5 6 8 7 5 4 4 5 6 6 3 1 6 10 9 8 9 11 10 9 9 7 8 8 7 8 7 7 8 7 9 10 8 10 11 13 16 15 15 13 12 12 11
22 21 20 19 18 16 14 12 11 9 8 7 6 6 6 6 7 7 8 9 11 11 12 12 9 6 3 3 2 6 9 9 3 3 2 2 1 2 1 2 2 4 5 4 3 4 5 7 6 4 4 5 5 7 7 6 6 9 11 9 9 9 10 10 9 9 8 8 7 8 8 7 8 8 8 10 10 10 11 12 13 15 14 13 12 12 12 11
22 21 20 19 18 16 14 12 11 9 8 7 6 6 6 7 7 7 8 9 10 10 11 11 8 6 4 5 2 10 8 6 4 4 4 3 3 2 1 2 2 4 4 2 3 3 4 5 4 3 3 6 6 7 4 4 7 8 10 10 10 10 10 9 9 8 7 6 6 8 9 9 9 8 8 9 9 10 11 11 12 12 12 11 10 11 11 11
22 21 20 20 19 16 14 12 10 9 8 7 6 6 6 6 6 6 8 8 9 9 9 9 7 5 4 6 4 9 6 5 5 6 4 4 3 2 2 4 4 5 3 3 3 2 2 2 3 3 6 7 5 5 2 3 8 10 12 12 11 10 9 8 8 8 7 6 5 7 9 9 7 3 4 8 8 11 11 11 11 11 11 10 9 10 10 10
22 21 21 21 19 17 15 12 10 9 7 6 6 6 6 5 5 6 7 8 8 8 8 8 5 4 5 7 5 8 5 5 6 6 5 4 2 2 3 4 5 5 2 2 1 1 1 3 5 4 6 7 7 8 7 9 12 12 14 13 11 10 9 7 8 7 5 5 3 5 7 7 5 1 5 10 9 10 11 11 11 10 10 9 9 9 8 8
22 21 21 21 19 17 15 13 10 8 7 6 5 5 4 4 5 6 7 8 7 7 9 8 5 2 6 2 8 7 5 5 5 6 7 6 1 2 2 1 4 4 2 2 3 1 0 4 5 2 6 7 7 9 8 9 11 12 13 12 10 10 9 6 5 5 4 4 3 4 6 7 6 5 10 12 10 10 10 10 10 9 9 9 8 7 7 7
21 21 21 21 19 17 16 14 11 8 6 4 4 4 3 5 5 6 9 8 6 7 9 8 5 2 4 4 9 7 6 6 8 9 8 6 2 1 6 4 2 2 1 4 5 2 2 4 4 6 8 6 6 8 8 7 9 11 10 9 9 8 7 4 3 4 4 4 2 4 4 6 8 9 12 12 11 11 10 10 10 9 8 8 7 7 6 7
21 21 21 20 19 18 17 15 11 8 5 3 3 3 4 5 4 7 11 8 7 7 8 8 5 1 1 6 6 7 8 5 9 10 7 7 2 1 5 5 4 3 3 4 5 5 4 6 8 9 6 5 9 11 10 8 7 9 8 7 6 5 7 5 3 5 6 4 3 5 3 5 8 10 12 11 11 11 10 11 10 9 9 8 7 7 7 7
21 21 21 19 18 18 18 15 11 7 5 4 3 4 5 6 6 9 10 8 8 8 7 6 3 2 3 8 3 6 8 5 8 10 9 8 4 3 4 5 6 7 7 6 8 7 5 8 10 8 6 9 12 11 9 6 5 6 6 5 4 3 6 6 4 6 4 4 6 7 3 5 8 10 12 11 11 11 9 10 10 10 9 8 8 7 7 7
20 20 19 18 17 17 18 16 10 7 5 4 4 5 6 8 9 10 8 7 9 10 5 3 3 5 3 7 1 2 6 7 8 9 8 8 6 5 3 4 7 8 8 8 9 8 7 7 6 7 8 9 10 7 6 5 5 5 3 3 4 3 5 7 7 6 3 4 8 7 3 4 5 8 12 11 12 11 8 9 10 9 9 8 7 7 7 7
19 19 19 17 16 17 18 17 13 8 5 5 5 6 7 8 11 12 8 5 8 9 6 5 3 4 4 4 2 3 7 9 8 7 6 7 7 4 2 5 5 6 10 11 10 8 9 7 4 5 6 6 6 5 5 4 4 4 3 2 3 3 4 7 7 8 6 6 8 9 5 3 5 6 10 10 10 11 9 8 10 9 9 8 7 7 7 7
19 18 18 16 14 16 17 17 16 11 7 6 6 6 7 5 9 13 9 4 2 1 3 6 4 1 6 5 3 5 8 7 6 6 4 5 7 5 3 4 3 5 9 9 7 5 6 5 4 5 4 4 5 4 3 2 3 4 3 3 3 3 5 6 6 9 11 9 9 10 8 3 6 5 7 9 9 9 8 8 9 9 9 8 8 8 8 7
18 17 17 15 13 14 16 17 17 15 11 8 7 6 5 1 3 9 10 7 2 0 2 5 4 1 5 7 6 5 5 4 3 5 4 3 3 3 5 4 3 5 6 5 4 3 4 4 4 4 3 3 2 2 4 2 3 4 4 3 2 3 5 5 4 7 11 10 9 9 9 7 6 5 4 7 8 8 8 8 7 8 8 8 8 8 8 8
17 16 16 14 13 13 15 16 16 17 13 9 7 4 2 1 3 5 10 10 7 5 4 5 5 4 4 6 8 7 2 1 4 8 7 3 2 3 6 5 5 3 1 3 4 2 2 2 3 2 3 3 3 3 4 2 2 3 3 2 3 4 4 6 5 4 8 9 9 10 10 9 5 4 4 5 7 8 8 8 7 7 8 8 8 8 8 8
17 16 15 14 12 11 13 15 15 15 12 11 8 2 2 4 2 4 5 6 7 4 4 5 3 3 5 5 9 9 3 4 10 11 9 4 5 3 4 4 5 5 3 4 5 3 3 1 5 5 5 5 3 1 1 1 2 3 3 3 4 4 3 5 5 4 7 8 7 9 10 10 8 3 4 5 7 7 7 8 7 8 8 7 8 9 8 8
17 15 14 13 12 10 10 13 14 12 12 12 11 7 6 6 4 3 3 3 8 3 2 3 0 4 4 3 9 11 4 6 12 12 13 7 3 0 2 3 4 6 5 4 4 4 3 4 6 5 4 3 1 1 2 2 3 3 2 3 3 3 2 4 4 4 6 7 6 8 9 9 10 7 5 7 8 6 6 8 7 8 8 7 8 9 9 9
18 15 13 11 10 9 8 10 12 12 13 13 12 9 6 5 4 2 4 0 7 5 4 5 4 7 7 4 9 11 5 9 9 11 16 10 4 4 1 3 5 5 4 2 1 2 4 6 6 3 3 2 1 1 4 3 2 3 2 3 1 3 2 2 5 5 7 7 6 8 8 8 9 8 7 9 8 7 7 8 8 8 8 8 8 8 9 10
18 15 13 10 9 8 6 7 9 10 12 12 11 9 4 6 4 2 3 1 5 6 6 5 5 8 8 4 7 8 9 10 8 10 15 10 5 3 3 4 3 4 3 3 4 5 7 7 4 2 2 2 1 2 2 4 2 1 3 4 2 4 3 2 4 5 6 7 6 7 7 7 7 8 8 8 8 8 8 8 8 9 8 8 8 8 10 10
19 15 12 10 8 7 6 4 6 7 6 6 8 7 6 7 2 3 3 2 4 5 2 2 2 6 6 4 5 4 5 9 9 9 11 10 5 2 3 3 2 5 6 5 6 7 8 6 3 2 2 1 1 3 5 6 2 3 4 5 4 3 2 1 5 6 4 6 7 7 7 4 3 6 9 7 7 9 9 9 10 9 9 8 8 9 11 11
19 16 12 10 8 6 5 1 5 5 1 3 6 7 7 7 1 3 3 2 5 4 2 2 2 4 5 4 5 3 2 6 8 8 9 7 5 2 2 1 2 6 6 5 5 4 5 4 2 1 1 1 1 4 7 8 5 1 5 5 3 0 2 4 5 5 4 1 5 7 8 4 1 6 9 8 8 9 9 10 10 9 8 8 8 9 10 11
19 16 12 9 9 7 2 1 4 4 0 3 6 7 8 5 2 3 3 2 5 3 4 4 3 5 6 4 4 4 0 4 3 8 12 8 4 3 1 3 3 4 3 1 3 3 4 3 3 2 2 1 2 4 8 8 6 2 5 3 2 2 3 2 4 6 4 1 3 7 6 6 4 4 6 7 9 10 9 10 10 9 9 9 9 9 9 9
19 15 11 8 8 7 4 2 3 2 3 5 7 7 6 1 4 2 4 1 4 2 2 4 3 4 3 3 6 4 5 3 2 7 9 8 6 3 1 6 3 5 1 4 3 4 4 6 6 5 3 3 5 5 8 8 6 4 5 4 3 3 5 4 6 6 2 3 4 6 4 7 5 2 5 5 7 8 9 9 8 9 10 10 9 8 8 8
19 14 9 7 5 5 4 3 2 2 4 6 8 6 1 3 3 4 3 2 2 1 1 2 1 1 1 3 8 8 7 5 4 7 5 5 9 5 4 6 3 7 3 3 5 7 4 7 7 7 5 5 5 5 6 8 5 5 3 4 3 4 5 4 6 4 2 5 4 4 3 6 5 1 3 2 3 3 3 5 7 9 9 9 7 7 7 7
18 13 8 5 3 2 2 3 3 3 5 7 7 2 3 3 3 5 1 2 1 1 1 2 1 1 2 3 7 7 7 7 5 4 3 5 7 7 5 1 0 5 6 6 8 7 5 3 3 6 6 5 4 2 3 5 4 2 4 6 5 5 4 4 4 3 4 4 1 4 1 5 6 2 2 1 2 3 2 1 3 5 7 6 6 6 7 6
17 11 6 4 2 1 1 2 2 5 7 7 3 3 4 3 4 3 2 2 1 1 0 1 2 0 1 3 6 6 7 8 5 4 4 4 4 6 3 2 2 3 5 6 6 6 6 3 2 4 5 6 4 3 2 1 3 4 4 4 5 4 3 4 4 3 5 2 4 4 2 4 6 1 3 3 3 2 2 2 1 1 2 2 3 4 4 5
14 8 4 2 1 1 1 1 3 5 7 5 1 4 4 3 3 1 3 2 2 1 1 2 2 2 3 5 6 5 4 5 6 6 5 4 5 6 4 2 1 1 3 3 4 5 4 4 4 3 2 7 7 3 2 3 3 3 3 3 4 3 2 3 2 2 4 1 4 3 1 4 3 3 4 4 3 1 1 2 1 2 2 1 0 1 1 3
11 5 2 1 1 1 1 1 2 5 7 3 4 4 4 4 2 1 2 2 0 3 1 1 2 2 3 4 5 4 3 4 4 3 3 2 4 5 6 7 5 3 1 2 3 4 3 4 3 1 2 6 9 5 2 2 3 5 4 3 4 3 2 3 3 3 3 1 4 3 2 5 2 4 5 4 3 3 2 2 2 2 1 1 1 1 1 2
9 3 2 1 1 1 1 2 2 5 6 2 5 4 4 3 1 1 1 2 3 3 2 2 3 4 2 3 4 2 1 5 3 1 2 1 3 4 5 7 6 3 0 1 1 1 1 3 4 4 3 5 7 6 6 6 4 4 4 5 4 3 4 4 4 4 4 3 1 3 2 4 2 2 3 4 3 3 2 1 1 1 1 1 1 1 1 1
7 2 2 3 2 1 2 3 3 5 4 3 5 3 4 2 2 3 2 3 4 4 4 3 4 4 4 4 3 2 2 3 2 1 3 3 3 4 3 5 7 4 1 1 1 1 2 3 6 5 3 5 6 5 5 7 3 1 2 4 3 4 4 3 3 4 5 5 2 1 2 2 2 2 2 3 3 3 2 1 1 1 0 0 1 1 1 1
5 2 3 3 2 3 2 2 2 4 3 4 5 3 2 1 1 2 1 2 2 4 6 6 4 2 3 3 3 2 1 1 2 1 3 4 3 4 3 4 5 5 4 2 1 1 1 4 5 2 2 4 5 5 5 6 4 1 2 2 4 3 5 3 1 1 3 5 1 1 3 1 2 2 4 4 4 4 4 3 2 2 1 1 1 1 1 1
5 1 3 3 3 4 2 1 2 2 3 5 3 1 0 2 1 1 2 1 1 2 5 4 1 1 1 2 3 4 2 2 3 2 1 3 2 3 3 4 4 5 5 3 1 1 2 3 5 1 2 4 2 2 3 5 6 5 2 4 1 2 2 3 3 1 3 4 2 1 4 3 1 1 4 5 4 4 4 3 3 2 3 3 1 0 2 2
7 1 2 2 3 3 1 3 3 3 4 4 1 1 1 1 2 1 2 2 1 3 5 2 1 1 2 2 3 3 2 3 3 1 1 3 1 1 1 3 4 3 3 4 1 2 3 1 5 1 0 4 3 5 2 5 5 4 3 2 2 2 1 1 2 3 4 5 3 2 3 3 2 2 1 1 0 1 1 1 2 2 2 2 1 1 2 3
5 3 3 2 3 2 3 6 4 4 5 4 2 2 1 2 3 1 2 1 2 4 4 1 1 1 2 1 1 3 1 2 1 1 1 1 2 1 1 1 3 2 2 4 2 2 2 2 4 3 0 2 4 3 1 3 4 2 3 2 1 3 3 3 2 4 5 5 4 4 3 2 3 4 4 5 4 4 4 4 4 4 3 3 3 2 2 3
3 3 2 3 3 3 6 6 4 5 4 2 0 2 2 3 4 2 1 1 1 1 2 1 2 3 2 1 0 1 0 1 0 1 1 1 2 3 1 1 2 3 2 1 2 1 2 2 1 3 3 3 2 2 4 4 2 0 1 1 2 1 2 2 1 2 4 5 4 5 5 3 4 4 5 5 5 4 4 5 5 5 5 4 4 3 3 3
3 3 2 3 4 4 5 4 3 2 2 1 1 3 3 1 3 4 3 2 1 1 2 0 1 1 2 2 1 2 1 1 2 1 2 3 2 2 3 1 1 1 2 3 3 2 2 2 1 1 3 2 3 5 5 5 5 5 3 3 3 2 2 3 1 1 2 4 4 5 6 3 4 3 4 4 4 4 5 6 7 7 8 7 5 4 3 3
4 3 2 3 4 4 5 3 2 1 2 2 2 4 3 0 2 5 5 3 2 1 1 1 1 1 1 0 1 2 2 2 3 2 2 2 1 3 3 1 2 3 3 0 3 3 2 2 1 1 3 4 6 4 2 2 2 3 3 3 3 3 3 4 3 2 2 3 2 4 4 2 5 4 3 3 3 5 6 7 8 9 9 9 7 5 3 3
4 1 3 3 5 3 5 3 3 2 2 2 2 4 2 2 3 4 5 4 3 3 3 2 1 1 1 1 1 3 3 1 1 1 2 4 3 5 4 1 3 3 3 0 2 2 1 2 1 2 4 4 4 3 2 1 3 2 2 2 3 3 3 4 5 4 4 3 3 4 4 1 4 4 2 1 2 5 6 7 8 8 8 8 7 5 3 2
2 1 1 3 6 3 5 4 4 5 4 4 4 5 3 1 1 2 4 3 2 3 4 3 2 1 1 1 2 2 2 1 2 1 1 3 3 5 3 2 3 2 1 2 2 1 1 1 2 3 4 5 4 4 4 4 3 2 2 3 2 2 2 4 3 3 4 2 2 5 5 2 3 2 2 3 4 7 7 7 6 6 6 6 5 4 3 2
2 2 2 1 4 2 3 2 2 5 7 6 7 7 6 3 2 1 1 2 1 1 2 3 3 3 3 3 2 3 2 1 1 2 2 3 5 4 3 2 3 1 4 4 2 1 1 1 2 3 1 2 1 1 1 0 0 1 1 0 1 1 2 4 3 4 3 1 1 6 6 4 4 4 5 6 7 8 8 6 6 5 5 5 4 4 3 3
2 2 2 2 0 1 1 1 2 4 7 8 7 6 7 5 4 1 1 2 2 1 2 4 4 4 4 4 4 4 3 1 0 2 4 4 5 4 3 2 3 4 7 4 1 1 1 1 2 4 4 3 3 4 4 2 2 2 2 2 1 2 3 4 5 4 3 4 4 4 5 8 9 8 7 7 7 8 7 7 7 6 5 5 4 4 4 3
2 1 1 2 1 3 3 2 4 4 5 7 6 6 8 7 6 4 0 1 2 2 2 3 4 5 5 6 5 3 4 3 2 3 4 4 4 5 4 3 5 7 6 3 1 2 3 3 2 2 3 4 3 3 2 2 3 3 4 3 2 3 3 4 6 5 5 5 5 3 5 9 10 9 9 7 6 7 7 8 8 7 7 6 5 5 5 4
1 2 2 2 1 3 3 4 5 4 5 6 4 5 9 9 7 5 2 2 3 4 3 3 6 7 6 7 6 4 5 4 3 4 4 3 4 5 6 5 5 7 7 4 1 2 3 2 2 1 1 2 1 0 2 3 4 4 5 5 5 5 4 5 7 7 4 5 7 8 9 11 10 9 8 7 6 7 8 8 8 7 7 7 6 7 7 6
1 1 1 1 2 1 1 0 3 5 6 5 3 5 9 10 9 4 2 3 5 4 3 4 7 8 6 7 5 4 6 4 3 5 5 4 4 5 5 5 5 7 7 4 3 1 3 2 3 3 3 3 3 2 4 4 4 5 6 6 5 6 6 6 8 8 5 8 11 11 12 12 9 7 7 6 6 7 7 8 8 8 7 7 7 7 7 7
1 2 1 1 3 1 1 1 3 6 6 3 3 6 7 9 9 5 3 4 5 5 5 6 6 6 6 7 7 5 4 4 2 3 5 6 5 5 4 2 3 6 6 4 3 1 3 1 2 4 5 5 6 4 5 5 5 5 4 3 1 1 2 4 5 5 5 7 9 9 11 10 4 3 5 6 6 7 7 7 7 7 7 7 7 7 7 8
3 3 2 3 3 2 2 2 4 5 6 6 6 6 7 10 10 8 5 3 2 3 5 6 5 4 4 7 8 5 2 3 2 1 4 6 3 4 3 1 2 5 5 4 4 3 3 1 3 4 5 3 6 4 4 5 6 5 3 3 3 3 1 3 3 4 5 3 3 5 8 6 2 3 6 7 7 8 8 6 5 5 6 7 8 8 8 7
2 2 2 4 2 2 3 3 4 5 5 5 5 5 6 8 9 8 5 3 2 1 1 3 4 5 5 7 6 2 3 3 1 1 2 3 1 2 2 0 2 3 3 4 4 2 3 2 2 3 4 1 5 2 6 7 6 4 2 2 5 6 4 3 4 6 8 5 3 4 5 6 6 5 7 8 8 8 6 5 4 5 6 8 8 8 7 5
Wind_Direction
5 3 0 360 359 0 2 6 12 18 23 24 28 33 31 28 20 13 10 1 356 346 342 345 341 342 338 345 358 14 87 112 140 155 130 95 96 122 139 157 162 159 151 147 169 164 158 169 170 196 200 179 197 115 121 319 321 251 199 153 131 117 142 151 107 108 126 134 136 140 136 118 114 112 114 115 109 106 101 92 92 97 98 105 114 119 121 121
7 6 3 4 4 5 8 10 15 21 25 25 27 29 26 20 17 13 7 357 350 345 348 349 350 353 351 359 19 73 111 145 149 97 86 95 118 133 136 150 159 158 154 169 188 182 169 160 165 191 200 168 147 156 171 273 284 268 174 141 106 108 146 129 101 122 138 132 128 131 127 113 113 120 136 129 117 114 108 104 105 108 109 110 113 117 119 116
9 7 6 7 7 9 11 11 15 22 23 24 23 21 22 20 20 13 1 354 350 351 351 352 357 358 1 10 42 124 147 173 112 81 81 112 127 137 149 157 162 167 175 223 219 236 237 168 179 196 203 164 126 199 163 174 252 287 206 133 104 120 151 119 109 123 123 124 126 122 117 107 106 120 141 129 122 119 112 118 127 127 123 120 119 118 117 113
9 7 7 9 9 11 11 10 12 19 21 21 18 14 19 22 19 4 356 356 352 352 350 354 359 359 6 6 21 159 211 164 78 67 80 109 144 158 169 174 183 189 204 246 222 244 249 203 198 209 218 151 112 198 136 107 206 322 5 119 117 134 139 110 113 121 122 126 120 119 119 108 104 110 129 135 130 121 113 118 133 134 128 124 123 119 116 114
9 8 9 10 10 12 10 9 9 14 17 14 12 10 16 19 9 357 355 355 351 350 349 357 0 2 12 3 29 194 246 122 69 47 65 100 174 181 206 208 215 209 210 217 194 203 213 205 204 212 224 141 132 181 109 83 199 76 75 110 128 136 120 108 119 121 123 124 120 125 119 110 110 100 104 111 95 99 106 113 125 128 125 122 121 121 121 119
10 9 10 10 10 12 9 7 6 8 10 6 6 5 10 8 357 353 351 351 350 350 354 359 3 7 22 27 63 213 242 85 73 20 54 231 191 242 260 249 253 219 209 204 190 195 197 202 204 196 189 138 129 124 102 93 259 113 96 109 124 122 115 118 123 121 127 129 122 116 108 118 118 95 79 65 65 83 99 114 123 122 122 120 122 125 124 121
10 10 11 10 10 10 6 4 2 2 0 358 357 356 2 355 349 351 349 352 353 353 356 2 7 11 21 15 266 193 90 84 73 18 45 273 243 275 292 291 264 202 205 204 196 191 193 206 204 187 154 130 115 106 110 124 216 125 115 110 110 109 114 118 122 127 129 120 110 112 120 129 117 100 90 78 78 95 109 119 121 120 123 121 122 125 119 117
9 10 10 10 9 7 4 1 358 354 351 349 347 349 350 346 348 348 348 354 355 355 357 5 9 9 1 282 217 106 75 67 47 18 6 355 326 285 309 289 236 190 210 211 200 189 203 205 195 201 150 114 113 117 126 125 107 115 120 115 110 106 110 116 124 128 121 114 118 125 118 102 100 102 93 86 90 104 114 122 122 124 126 124 126 127 122 120
10 11 9 9 7 5 4 359 354 349 342 341 341 343 343 345 348 344 351 355 355 357 358 10 13 8 350 283 146 96 61 32 10 352 347 346 331 315 251 243 215 206 210 175 213 215 224 207 191 224 117 105 125 125 129 125 102 108 118 120 120 111 112 124 130 127 121 125 134 128 113 101 110 111 91 88 102 114 121 126 128 132 128 125 130 133 132 129
10 10 9 8 6 6 5 0 355 344 335 336 334 338 342 344 345 343 351 352 356 1 4 17 23 23 327 270 129 93 45 13 2 354 355 348 347 336 229 224 213 216 197 144 213 239 252 193 148 157 112 109 125 106 52 112 117 116 116 114 116 111 111 127 127 124 119 120 144 138 118 115 138 170 103 108 122 128 133 133 134 135 128 130 139 139 138 135
10 9 9 8 7 9 7 4 356 341 333 331 329 339 341 341 344 346 347 351 359 5 18 28 42 43 300 274 101 84 30 9 1 359 5 9 2 288 249 229 210 212 213 124 127 332 306 120 132 158 133 121 112 90 73 106 123 122 119 112 111 110 107 120 124 127 128 116 148 145 120 128 161 202 111 129 141 140 139 138 138 138 135 143 146 143 143 139
9 9 9 8 10 12 9 6 357 345 336 329 336 343 344 348 346 351 349 352 4 17 34 39 56 24 289 302 73 57 13 1 1 11 14 17 336 282 346 214 203 217 296 28 66 28 81 141 166 154 133 145 123 101 95 116 129 131 133 123 122 126 114 113 122 136 155 126 146 167 151 157 158 117 117 135 145 146 145 140 142 144 147 152 150 148 147 145
8 9 10 10 12 12 10 7 0 354 345 344 354 347 357 355 348 3 359 2 27 40 44 42 54 326 289 83 66 26 14 16 24 26 14 7 324 341 27 46 145 214 300 25 47 81 123 155 158 100 118 146 113 113 126 138 143 142 148 138 138 147 130 123 132 151 154 121 151 215 198 150 134 122 127 138 150 155 154 150 151 153 156 158 158 158 151 155
7 9 11 11 12 12 11 9 7 7 9 13 6 3 8 358 4 10 6 27 54 57 55 45 61 269 299 86 63 26 34 39 36 27 9 360 332 131 46 48 75 100 112 70 70 99 124 144 131 103 99 107 112 129 135 146 159 148 151 153 160 164 141 141 164 178 162 130 192 247 251 129 128 132 134 143 157 162 158 156 162 164 165 163 163 165 156 161
7 9 11 13 13 12 12 12 11 12 21 26 18 24 18 14 23 10 16 53 65 61 59 43 39 252 125 96 72 32 38 44 34 17 11 7 1 92 71 71 89 100 103 89 95 103 125 143 134 112 98 116 136 144 135 143 161 155 163 168 182 173 144 152 183 204 186 154 205 250 267 119 128 140 140 150 160 165 166 162 168 170 166 164 165 168 160 155
6 8 11 14 13 13 15 15 12 6 16 25 24 26 21 26 23 15 34 73 69 61 56 54 354 293 86 86 55 43 39 25 16 4 11 13 12 36 64 107 108 112 110 100 108 115 118 119 112 112 124 142 153 151 141 151 155 176 216 185 188 187 156 166 180 203 217 176 198 240 273 98 121 148 143 156 167 168 176 169 171 171 163 166 169 169 161 151
5 7 11 15 15 16 17 16 14 5 4 12 20 23 19 29 29 28 52 88 71 60 46 42 333 288 75 66 305 26 16 4 5 0 9 20 27 34 135 138 115 120 124 120 120 120 114 113 121 132 148 169 167 163 166 178 170 193 243 197 198 205 171 169 173 191 209 208 201 216 243 85 111 160 148 156 173 173 181 176 172 171 168 174 174 172 168 159
4 6 10 14 16 19 19 18 16 10 2 355 351 0 1 22 39 37 47 79 93 108 60 30 326 212 84 40 355 7 354 348 1 4 9 35 41 50 109 123 132 154 147 131 120 132 135 146 167 152 156 174 182 203 223 223 199 207 226 206 200 208 205 188 171 185 197 213 215 213 233 182 137 165 156 157 176 181 182 181 176 175 175 176 175 176 174 168
3 4 8 13 14 19 22 19 17 15 11 359 343 336 329 311 66 48 46 54 66 77 68 28 356 61 63 24 0 347 350 347 1 22 34 53 44 80 113 129 167 183 176 145 116 146 159 164 167 155 152 161 190 281 308 299 208 218 226 234 224 211 224 210 171 180 194 210 221 217 235 225 164 149 168 171 178 185 184 183 184 178 176 178 180 178 175 175
3 2 5 10 11 16 20 19 18 17 14 11 357 319 262 212 154 87 52 49 52 32 39 37 17 45 53 13 357 347 353 91 53 47 45 30 291 141 127 154 170 163 173 130 111 124 200 172 130 66 50 36 15 358 333 323 184 228 232 240 232 219 226 211 182 170 199 218 225 225 239 244 213 148 171 194 189 194 194 189 190 185 182 182 184 180 176 179
2 0 1 7 9 12 16 18 20 21 27 35 30 26 55 25 45 73 44 66 68 17 34 46 351 37 34 357 3 346 279 92 59 50 41 15 263 202 138 188 168 119 80 105 116 146 222 142 73 33 24 18 3 9 306 231 182 219 236 253 235 225 210 183 184 173 198 224 232 233 245 248 244 211 172 200 211 211 209 204 200 193 189 184 186 187 185 183
0 359 359 2 6 7 11 16 21 28 43 50 52 67 64 25 5 359 304 97 80 22 46 66 275 77 48 354 4 334 293 60 51 44 21 355 281 192 152 192 135 108 123 150 153 165 168 87 64 36 16 8 19 197 226 205 211 225 222 251 235 210 141 144 183 193 194 222 241 235 243 249 245 240 212 213 223 225 220 220 217 205 197 187 189 192 191 189
359 358 356 357 1 2 2 10 19 35 48 51 55 62 55 7 345 301 275 205 82 55 42 42 35 51 46 47 7 343 33 46 31 36 6 350 66 34 331 131 106 117 148 176 187 160 118 70 47 22 335 297 122 151 242 225 232 271 265 260 178 140 219 199 176 193 202 217 251 248 245 246 236 235 237 230 227 219 212 214 216 214 205 196 194 192 196 197
358 356 354 353 353 354 352 1 14 36 50 57 59 53 22 353 342 249 278 272 92 65 48 37 29 32 27 24 346 350 66 49 20 31 0 358 68 23 14 67 87 119 92 59 77 77 75 56 13 303 265 271 168 94 305 277 230 34 342 325 53 140 241 313 121 158 198 211 239 261 256 243 231 236 243 234 224 212 202 203 208 210 210 208 200 193 202 207
356 354 355 350 348 347 334 352 23 26 41 64 55 35 1 358 346 233 279 222 109 70 83 85 28 27 10 331 330 344 87 58 30 24 5 4 11 359 73 26 352 97 86 78 93 81 65 45 335 269 107 7 298 69 14 318 271 108 50 24 40 133 172 96 139 167 209 216 211 235 260 252 222 249 245 222 218 218 206 207 211 207 206 207 200 198 207 211
353 353 353 349 351 340 298 306 32 358 352 77 31 4 356 355 306 196 279 203 103 35 355 28 3 17 4 340 346 295 177 68 38 24 21 9 338 318 102 82 55 81 79 77 89 81 61 48 342 336 47 50 98 72 30 335 292 121 65 45 37 74 166 161 183 217 258 263 173 208 260 282 249 253 241 214 218 223 210 210 215 208 202 203 202 207 211 210
351 350 350 352 355 350 312 18 11 335 189 61 4 347 348 338 179 165 264 195 97 9 335 19 11 7 8 1 346 281 35 62 60 41 26 7 340 280 222 104 113 90 74 91 107 72 36 60 71 16 317 333 40 49 24 341 303 49 59 11 316 287 275 234 236 255 277 14 160 195 246 280 267 233 206 203 220 222 213 216 219 212 208 209 210 216 214 208
348 347 349 352 356 10 37 22 349 8 47 16 345 340 337 292 155 201 260 130 65 324 331 30 10 347 352 43 43 55 60 17 337 43 20 6 10 301 96 70 83 103 95 272 124 89 22 41 39 3 344 31 38 30 11 337 315 45 45 330 313 299 292 281 269 270 281 282 240 186 208 273 274 157 146 192 231 233 225 229 232 226 221 218 219 228 224 208
346 345 349 347 351 19 42 45 27 38 31 357 341 344 336 160 171 255 263 78 41 274 67 24 348 348 261 85 62 64 67 37 22 37 20 33 39 27 68 58 66 104 89 334 90 103 59 42 20 4 13 27 29 27 5 337 337 30 351 280 250 252 259 262 273 280 248 263 264 140 178 276 287 185 144 192 260 274 250 242 246 240 234 228 229 239 232 214
343 341 347 346 355 11 30 87 73 9 8 349 345 31 160 178 230 251 186 73 16 106 83 322 339 335 243 123 78 66 65 59 44 43 65 80 65 63 75 56 164 102 93 74 86 104 94 74 24 31 19 353 348 359 12 346 334 323 271 255 233 234 240 247 263 273 259 253 106 97 160 275 285 274 100 52 334 334 341 292 259 247 239 232 230 234 232 224
341 338 345 347 6 352 264 125 72 355 358 353 4 149 192 222 251 256 94 83 324 96 103 31 68 118 245 89 79 74 73 65 39 33 75 97 90 77 89 204 181 123 124 107 104 120 121 131 101 62 12 346 310 242 175 238 249 240 253 267 257 234 222 238 215 213 263 269 93 90 138 246 267 298 66 21 339 301 314 6 13 273 225 213 224 233 238 237
340 335 345 354 16 358 294 68 21 349 353 357 167 196 237 226 223 281 98 165 225 53 56 57 70 101 102 87 77 65 65 65 45 37 54 74 78 57 30 19 13 201 148 117 136 143 121 86 88 118 47 357 326 278 178 193 223 268 280 290 283 265 236 262 238 229 277 31 98 100 154 248 254 60 35 360 359 349 348 18 38 55 78 100 226 253 241 240
340 339 359 19 54 49 3 2 345 341 354 353 204 220 260 238 217 60 108 178 95 59 74 76 89 116 139 115 90 66 51 60 47 53 59 54 84 82 57 41 354 295 64 95 174 170 136 112 92 130 96 3 344 354 18 351 4 357 342 322 309 319 321 293 288 295 307 62 118 137 247 266 230 72 31 20 47 56 50 45 30 38 48 25 351 326 277 241
341 348 31 82 80 74 335 312 321 343 352 262 214 223 245 244 134 91 175 123 93 113 141 156 145 130 112 84 72 26 55 73 47 64 123 103 89 93 80 57 16 333 134 153 182 308 280 119 59 19 15 3 12 25 0 335 338 7 350 315 327 5 338 317 319 327 333 333 129 154 239 295 329 30 34 62 88 88 89 85 49 345 316 341 317 306 311 265
347 11 80 106 65 19 323 313 316 335 330 226 221 227 237 247 136 172 183 107 124 155 148 171 201 159 114 97 76 354 345 75 87 64 71 72 67 61 58 49 28 4 300 214 121 318 296 82 67 48 28 12 29 40 349 317 303 32 331 298 354 12 328 323 336 339 330 309 304 163 276 326 37 65 104 128 144 139 140 147 149 173 140 318 283 301 337 328
5 53 105 106 17 347 331 313 312 327 299 224 228 233 244 354 87 159 106 106 151 162 161 174 207 192 137 136 129 132 301 54 163 156 75 80 75 58 53 44 20 352 335 352 110 220 252 104 98 122 118 53 32 34 11 341 327 317 296 348 37 350 311 308 276 226 268 278 301 5 301 290 105 100 132 167 185 164 167 181 163 132 122 238 281 7 337 333
2 66 131 105 2 341 343 334 320 302 253 232 249 284 64 46 53 91 102 137 143 169 195 188 178 283 181 154 136 141 171 179 185 209 133 128 92 57 78 68 17 349 355 354 47 5 310 121 118 193 161 105 55 332 46 23 340 313 354 41 35 252 271 288 279 247 270 294 345 356 312 308 317 79 143 170 191 184 185 190 185 184 201 221 226 328 313 316
344 283 160 105 3 354 14 338 308 257 236 232 210 77 183 137 86 83 124 139 161 199 223 226 74 296 248 204 132 122 194 204 173 175 163 161 120 48 101 85 42 4 341 309 300 77 308 169 128 167 296 121 178 234 167 79 25 3 54 55 292 272 273 278 298 314 310 316 329 328 319 317 338 31 76 113 59 268 278 284 266 254 246 265 286 269 276 272
319 233 174 85 3 352 342 325 294 236 231 230 178 134 176 145 114 124 186 181 202 209 223 281 53 235 249 267 120 120 255 284 161 179 213 161 118 106 306 53 66 59 334 309 345 97 288 278 128 132 134 167 194 234 248 93 88 119 152 143 344 341 338 336 333 319 312 315 321 327 329 340 33 27 354 348 2 351 338 328 316 324 333 333 333 321 296 261
291 240 156 66 354 332 333 313 249 219 224 236 141 128 149 147 130 124 206 227 243 244 242 171 189 212 186 220 254 131 287 318 210 228 203 140 134 122 94 27 95 93 93 56 64 82 273 297 97 129 160 206 193 44 8 9 33 164 173 42 20 13 301 294 273 314 314 314 322 323 321 358 52 31 357 357 6 358 347 343 335 330 329 333 343 339 315 279
276 255 128 59 351 336 316 266 209 227 215 154 88 137 140 148 145 131 148 219 261 1 335 216 182 191 166 181 188 144 182 204 184 205 163 161 179 116 93 20 330 128 172 160 93 35 306 290 316 133 154 151 74 51 13 0 354 345 1 6 356 358 307 281 245 98 311 307 326 316 312 358 71 55 20 17 10 358 351 342 328 318 319 323 328 329 310 290
239 234 99 39 355 331 283 227 139 304 216 156 105 127 119 287 170 141 146 190 208 145 147 156 98 106 167 168 87 152 203 200 173 200 176 150 96 69 85 40 296 267 258 176 78 46 327 282 249 93 80 76 76 65 12 4 348 341 14 16 346 341 322 309 330 10 311 291 308 286 290 21 85 80 40 24 2 345 337 328 318 316 317 313 312 318 309 286
228 230 83 31 3 325 265 204 148 206 184 114 104 117 118 200 178 163 170 182 194 179 170 159 131 122 150 99 134 179 200 213 179 185 141 140 102 66 79 161 245 252 264 347 97 131 243 273 223 127 106 104 109 119 146 205 246 256 67 42 340 340 347 325 327 333 309 298 309 285 279 39 89 90 43 334 314 316 318 323 322 320 318 315 319 324 321 299
296 300 95 12 2 321 244 208 185 186 146 135 155 136 126 158 143 182 190 177 190 196 177 150 142 129 101 124 176 171 169 211 191 159 149 160 116 74 89 181 226 275 1 23 21 167 207 287 255 197 163 160 169 169 174 195 234 278 52 53 349 350 329 294 287 281 281 302 339 300 300 11 66 80 285 282 298 315 326 338 338 331 327 331 336 334 336 336
291 246 210 343 2 319 241 259 224 183 154 161 171 159 160 147 75 348 210 116 79 243 179 132 125 130 126 137 148 140 160 255 201 156 167 156 131 109 106 164 219 258 72 61 1 298 243 320 296 272 244 183 184 103 96 151 304 21 64 155 249 240 265 290 289 271 288 6 273 269 288 335 354 332 311 316 325 327 333 345 346 347 348 345 343 341 340 331
278 224 203 185 134 253 235 342 275 206 169 169 172 171 182 168 127 81 353 111 113 87 122 124 132 142 144 160 167 159 171 219 276 185 186 167 144 124 111 144 164 123 101 96 333 284 187 102 1 340 5 33 34 49 48 353 332 336 314 297 272 224 237 274 279 285 346 348 283 271 300 312 321 329 328 335 338 331 336 344 344 350 354 345 336 333 322 309
272 267 232 181 194 214 196 189 221 213 176 178 178 173 185 178 149 147 201 64 140 154 136 135 166 177 172 179 185 174 173 183 200 199 190 174 142 120 134 161 133 128 139 153 202 254 217 140 86 353 34 49 33 49 63 296 292 297 292 275 246 245 244 245 263 296 341 309 291 7 347 307 314 329 332 341 343 333 337 339 336 337 333 326 322 315 308 304
251 297 355 3 275 210 187 196 203 189 175 186 190 177 184 182 171 175 176 124 154 190 197 185 196 202 193 186 193 185 178 188 198 193 191 188 171 153 162 175 153 157 185 187 145 270 269 124 124 233 173 96 57 213 212 246 266 276 275 255 234 236 219 211 248 275 283 263 285 332 326 306 311 318 324 344 346 332 331 328 321 315 309 311 313 308 307 312
260 274 34 358 298 300 50 133 189 187 184 185 188 188 191 190 181 172 144 155 177 198 218 216 207 205 198 193 206 202 188 198 206 196 204 204 196 193 183 173 162 173 196 187 133 272 286 122 138 237 228 172 168 196 205 226 259 275 277 265 240 223 206 212 254 275 268 261 278 298 303 299 303 310 321 341 339 322 315 312 309 308 308 313 313 310 311 315
315 314 23 238 255 308 40 130 186 192 182 183 204 192 196 201 187 164 155 195 194 182 200 228 216 195 192 199 216 223 206 219 231 197 204 203 200 218 220 204 168 177 196 194 149 192 274 122 138 246 243 177 160 184 203 225 271 291 302 296 259 154 214 225 254 271 268 272 279 287 289 285 289 325 322 320 315 306 302 306 314 320 325 321 316 319 322 321
325 331 333 273 242 173 185 193 197 205 191 195 205 184 191 208 194 171 166 208 240 193 197 220 202 159 175 205 217 224 200 214 250 204 199 206 210 215 217 238 209 190 189 190 182 201 232 181 166 236 257 167 154 195 239 260 269 263 273 266 182 151 215 216 205 208 207 225 258 266 278 291 353 350 315 308 306 305 306 311 317 324 330 327 324 326 326 327
304 263 255 274 264 181 203 198 195 212 204 193 189 174 190 203 185 174 175 182 225 235 232 230 200 173 185 200 207 201 102 125 123 66 167 201 189 174 188 232 231 222 198 183 193 213 224 218 191 230 274 162 146 232 293 287 264 216 194 242 204 199 217 213 219 219 202 198 239 276 298 330 346 322 308 311 312 314 318 318 318 323 326 330 331 328 327 337